ELEKTRO-L 4

Last updated on Mon Oct 14 2024 00:02:42 GMT+0000 (Coordinated Universal Time)

1 55506U 23016A 24287.47690704 -.00000060 00000+0 00000+0 0 9998 2 55506 0.0850 58.0371 0002958 186.9188 115.0422 1.00271994 6188
UTC large
Height (km)
Speed (km/s)
/
Latitude / Longitude
Inclination (degrees)
Orbital Period (minutes)
Azimuth
Elevation
Range (km)
Doppler Factor

Next 0 passes for location: London (51.5072 / 0.1276)

Sorry there are no passes over London.